Satellite-Ground Cal/Val Site Overpasses Predictions

Prediction of Satellite NPP Overpassing Cal/Val Site: Antarctic Dome C

Ground Cal/Val Site Location: Latitude: -75.10, Longitude: 123.35; Satellite-Ground Site NADIR distance within 100 km.

Table of predicted overpasses for the next 14.0 days since TLE Epoch: 10/18/2014
Interval Starting Time Ending Time Minimum Distance Time Minimum Distance (km)
1 10/20/2014 15:03:47 10/20/2014 15:04:16 10/20/2014 15:04:02 20.57
2 10/21/2014 14:45:04 10/21/2014 14:45:18 10/21/2014 14:45:11 86.67
3 10/22/2014 07:46:34 10/22/2014 07:47:01 10/22/2014 07:46:48 39.48
4 10/23/2014 07:27:46 10/23/2014 07:28:07 10/23/2014 07:27:57 70.69
5 10/25/2014 15:09:57 10/25/2014 15:10:21 10/25/2014 15:10:09 56.96
6 10/26/2014 14:51:04 10/26/2014 14:51:29 10/26/2014 14:51:17 52.48
7 10/27/2014 07:52:44 10/27/2014 07:53:04 10/27/2014 07:52:54 74.00
8 10/28/2014 07:33:50 10/28/2014 07:34:17 10/28/2014 07:34:03 34.07
9 10/30/2014 15:16:10 10/30/2014 15:16:19 10/30/2014 15:16:14 93.98


<
